| time (UTC) | temp C | wind direction | speed KPH | gust KPH | rain 1hr cm | rain 24hr cm | rain mn cm | humidity % | barometer mb |
| 20260507190031 | 18 | 239 | 1.6 | 0.0 | 0.00 | 0.00 | 0.00 | 22 | 1009.1 |
| 20260507184515 | 17 | 308 | 0.0 | 0.0 | 0.00 | 0.00 | 0.00 | 22 | 1009.3 |
| 20260507183018 | 17 | 332 | 1.6 | 0.0 | 0.00 | 0.00 | 0.00 | 23 | 1009.8 |
| 20260507181507 | 16 | 316 | 0.0 | 0.0 | 0.00 | 0.00 | 0.00 | 25 | 1009.9 |
| 20260507180004 | 16 | 83 | 1.6 | 0.0 | 0.00 | 0.00 | 0.00 | 24 | 1009.9 |
| 20260507174608 | 16 | 62 | 0.0 | 0.0 | 0.00 | 0.00 | 0.00 | 26 | 1010.0 |
| 20260507173133 | 16 | 66 | 0.0 | 0.0 | 0.00 | 0.00 | 0.00 | 26 | 1010.5 |
| 20260507171601 | 15 | 247 | 0.0 | 0.0 | 0.00 | 0.00 | 0.00 | 27 | 1010.5 |
| 20260507170055 | 15 | 320 | 0.0 | 0.0 | 0.00 | 0.00 | 0.00 | 27 | 1009.9 |
| 20260507164600 | 15 | 336 | 0.0 | 0.0 | 0.00 | 0.00 | 0.00 | 28 | 1009.8 |
| 20260507163051 | 14 | 354 | 0.0 | 0.0 | 0.00 | 0.00 | 0.00 | 28 | 1010.5 |
| 20260507161559 | 13 | 40 | 0.0 | 0.0 | 0.00 | 0.00 | 0.00 | 27 | 1010.6 |
| 20260507160101 | 12 | 41 | 0.0 | 0.0 | 0.00 | 0.00 | 0.00 | 29 | 1010.7 |
| 20260507154541 | 11 | 48 | 0.0 | 0.0 | 0.00 | 0.00 | 0.00 | 31 | 1011.0 |
| 20260507153036 | 10 | 49 | 0.0 | 0.0 | 0.00 | 0.00 | 0.00 | 40 | 1011.4 |
| 20260507151532 | 8 | 49 | 0.0 | 0.0 | 0.00 | 0.00 | 0.00 | 42 | 1012.4 |
| 20260507150028 | 7 | 49 | 0.0 | 0.0 | 0.00 | 0.00 | 0.00 | 52 | 1011.7 |
| 20260507144535 | 6 | 49 | 0.0 | 0.0 | 0.00 | 0.00 | 0.00 | 64 | 1012.1 |
| 20260507143023 | 5 | 49 | 0.0 | 0.0 | 0.00 | 0.00 | 0.00 | 67 | 1012.1 |
| 20260507141526 | 4 | 49 | 0.0 | 0.0 | 0.00 | 0.00 | 0.00 | 66 | 1012.4 |
| 20260507140023 | 4 | 49 | 0.0 | 0.0 | 0.00 | 0.00 | 0.00 | 64 | 1011.4 |
| 20260507134521 | 4 | 49 | 0.0 | 0.0 | 0.00 | 0.00 | 0.00 | 62 | 1011.4 |
| 20260507133020 | 4 | 49 | 0.0 | 0.0 | 0.00 | 0.00 | 0.00 | 61 | 1011.3 |
| 20260507131520 | 4 | 49 | 0.0 | 0.0 | 0.00 | 0.00 | 0.00 | 61 | 1011.1 |
| 20260507130027 | 4 | 49 | 0.0 | 0.0 | 0.00 | 0.00 | 0.00 | 60 | 1010.0 |
| 20260507124517 | 4 | 49 | 0.0 | 0.0 | 0.00 | 0.00 | 0.00 | 60 | 1009.4 |
| 20260507123021 | 4 | 49 | 0.0 | 0.0 | 0.00 | 0.00 | 0.00 | 61 | 1009.3 |
| 20260507121514 | 4 | 49 | 0.0 | 0.0 | 0.00 | 0.00 | 0.00 | 59 | 1009.5 |
| 20260507120014 | 4 | 49 | 0.0 | 0.0 | 0.00 | 0.00 | 0.00 | 60 | 1009.4 |
| 20260507114512 | 4 | 49 | 0.0 | 0.0 | 0.00 | 0.00 | 0.00 | 60 | 1009.4 |
| 20260507113011 | 4 | 49 | 0.0 | 0.0 | 0.00 | 0.00 | 0.00 | 60 | 1009.4 |
| 20260507111511 | 5 | 49 | 0.0 | 0.0 | 0.00 | 0.00 | 0.00 | 61 | 1009.5 |
| 20260507110010 | 5 | 49 | 0.0 | 0.0 | 0.00 | 0.00 | 0.00 | 62 | 1009.8 |
| 20260507104508 | 5 | 49 | 0.0 | 0.0 | 0.00 | 0.00 | 0.00 | 63 | 1009.3 |
| 20260507103007 | 5 | 49 | 0.0 | 0.0 | 0.00 | 0.00 | 0.00 | 63 | 1009.5 |
| 20260507101513 | 5 | 49 | 0.0 | 0.0 | 0.00 | 0.00 | 0.00 | 64 | 1009.4 |
| 20260507100005 | 5 | 49 | 0.0 | 0.0 | 0.00 | 0.00 | 0.00 | 64 | 1009.9 |
| 20260507094503 | 5 | 49 | 0.0 | 0.0 | 0.00 | 0.00 | 0.00 | 64 | 1010.0 |
| 20260507093003 | 5 | 49 | 0.0 | 0.0 | 0.00 | 0.00 | 0.00 | 65 | 1010.2 |
| 20260507091502 | 5 | 49 | 0.0 | 0.0 | 0.00 | 0.00 | 0.00 | 64 | 1010.2 |
| 20260507090113 | 5 | 49 | 0.0 | 0.0 | 0.00 | 0.00 | 0.00 | 65 | 1009.8 |
| 20260507084601 | 5 | 49 | 0.0 | 0.0 | 0.00 | 0.00 | 0.00 | 65 | 1009.9 |
| 20260507083059 | 5 | 49 | 0.0 | 0.0 | 0.00 | 0.00 | 0.00 | 65 | 1009.9 |
| 20260507081558 | 5 | 49 | 0.0 | 0.0 | 0.00 | 0.00 | 0.00 | 65 | 1009.7 |
| 20260507080055 | 5 | 49 | 0.0 | 0.0 | 0.00 | 0.00 | 0.00 | 64 | 1010.3 |
| 20260507074558 | 6 | 49 | 0.0 | 0.0 | 0.00 | 0.00 | 0.00 | 62 | 1010.3 |
| 20260507073054 | 6 | 49 | 0.0 | 0.0 | 0.00 | 0.00 | 0.00 | 59 | 1010.3 |
| 20260507071554 | 6 | 49 | 0.0 | 0.0 | 0.00 | 0.00 | 0.00 | 55 | 1010.4 |
| 20260507070055 | 6 | 49 | 0.0 | 0.0 | 0.00 | 0.00 | 0.00 | 50 | 1010.9 |
| 20260507064607 | 6 | 49 | 0.0 | 0.0 | 0.00 | 0.00 | 0.00 | 47 | 1011.1 |
| 20260507063056 | 6 | 49 | 0.0 | 0.0 | 0.00 | 0.00 | 0.00 | 47 | 1011.0 |
| 20260507061552 | 6 | 49 | 0.0 | 0.0 | 0.00 | 0.00 | 0.00 | 43 | 1011.1 |
| 20260507060058 | 6 | 49 | 0.0 | 0.0 | 0.00 | 0.00 | 0.00 | 42 | 1012.3 |
| 20260507054603 | 6 | 49 | 0.0 | 0.0 | 0.00 | 0.00 | 0.00 | 46 | 1011.4 |
| 20260507053052 | 7 | 49 | 0.0 | 0.0 | 0.00 | 0.00 | 0.00 | 45 | 1011.3 |
| 20260507051551 | 7 | 49 | 0.0 | 0.0 | 0.00 | 0.00 | 0.00 | 44 | 1011.3 |
| 20260507050050 | 7 | 49 | 0.0 | 0.0 | 0.00 | 0.00 | 0.00 | 43 | 1011.3 |
| 20260507044550 | 7 | 49 | 0.0 | 0.0 | 0.00 | 0.00 | 0.00 | 41 | 1011.3 |
| 20260507043057 | 8 | 49 | 0.0 | 0.0 | 0.00 | 0.00 | 0.00 | 42 | 1011.3 |
| 20260507041600 | 8 | 49 | 0.0 | 0.0 | 0.00 | 0.00 | 0.00 | 42 | 1011.1 |
| 20260507040055 | 9 | 49 | 0.0 | 0.0 | 0.00 | 0.00 | 0.00 | 42 | 1010.9 |
| 20260507034550 | 10 | 49 | 0.0 | 0.0 | 0.00 | 0.00 | 0.00 | 39 | 1010.2 |
| 20260507033050 | 10 | 49 | 0.0 | 0.0 | 0.00 | 0.00 | 0.00 | 38 | 1009.7 |
| 20260507031546 | 11 | 49 | 0.0 | 0.0 | 0.00 | 0.00 | 0.00 | 35 | 1009.6 |
| 20260507030046 | 12 | 49 | 0.0 | 0.0 | 0.00 | 0.00 | 0.00 | 32 | 1010.6 |
| 20260507024546 | 12 | 49 | 0.0 | 0.0 | 0.00 | 0.00 | 0.00 | 29 | 1010.4 |
| 20260507023056 | 12 | 62 | 0.0 | 0.0 | 0.00 | 0.00 | 0.00 | 27 | 1009.7 |
| 20260507021550 | 13 | 47 | 0.0 | 0.0 | 0.00 | 0.00 | 0.00 | 26 | 1009.6 |
| 20260507020044 | 13 | 35 | 0.0 | 0.0 | 0.00 | 0.00 | 0.00 | 26 | 1011.7 |
| 20260507014556 | 14 | 66 | 0.0 | 0.0 | 0.00 | 0.00 | 0.00 | 26 | 1011.1 |
| 20260507013103 | 15 | 117 | 0.0 | 0.0 | 0.00 | 0.00 | 0.00 | 26 | 1010.7 |
| 20260507011543 | 16 | 28 | 0.0 | 0.0 | 0.00 | 0.00 | 0.00 | 25 | 1010.3 |
| 20260507010042 | 17 | 110 | 3.2 | 0.0 | 0.00 | 0.00 | 0.00 | 22 | 1010.0 |
| 20260507004541 | 17 | 37 | 1.6 | 0.0 | 0.00 | 0.00 | 0.00 | 20 | 1010.0 |
| 20260507003041 | 17 | 59 | 1.6 | 0.0 | 0.00 | 0.00 | 0.00 | 20 | 1010.1 |
| 20260507001554 | 17 | 30 | 1.6 | 0.0 | 0.00 | 0.00 | 0.00 | 19 | 1010.0 |
| 20260507000038 | 17 | 69 | 1.6 | 0.0 | 0.00 | 0.00 | 0.00 | 21 | 1009.8 |
| 20260506234535 | 17 | 318 | 3.2 | 0.0 | 0.00 | 0.00 | 0.00 | 25 | 1009.7 |
| 20260506233032 | 17 | 44 | 1.6 | 0.0 | 0.00 | 0.00 | 0.00 | 28 | 1009.6 |
| 20260506231528 | 16 | 17 | 3.2 | 0.0 | 0.00 | 0.00 | 0.00 | 27 | 1009.7 |
| 20260506230025 | 16 | 37 | 1.6 | 0.0 | 0.00 | 0.00 | 0.00 | 27 | 1010.2 |
| 20260506224522 | 16 | 58 | 3.2 | 0.0 | 0.00 | 0.00 | 0.00 | 28 | 1010.3 |
| 20260506223019 | 16 | 21 | 1.6 | 0.0 | 0.00 | 0.00 | 0.00 | 28 | 1010.3 |
| 20260506221516 | 16 | 45 | 1.6 | 0.0 | 0.00 | 0.00 | 0.00 | 28 | 1010.5 |
| 20260506220015 | 16 | 51 | 1.6 | 0.0 | 0.00 | 0.00 | 0.00 | 28 | 1010.7 |
| 20260506214514 | 15 | 47 | 3.2 | 0.0 | 0.00 | 0.00 | 0.00 | 29 | 1010.9 |
| 20260506213015 | 15 | 44 | 3.2 | 0.0 | 0.00 | 0.00 | 0.00 | 28 | 1010.9 |
| 20260506211511 | 15 | 7 | 4.8 | 0.0 | 0.00 | 0.00 | 0.00 | 28 | 1010.8 |
| 20260506210014 | 16 | 20 | 1.6 | 0.0 | 0.00 | 0.00 | 0.00 | 29 | 1010.7 |
| 20260506204508 | 15 | 38 | 1.6 | 0.0 | 0.00 | 0.00 | 0.00 | 31 | 1011.2 |
| 20260506203006 | 15 | 25 | 1.6 | 0.0 | 0.00 | 0.00 | 0.00 | 34 | 1011.0 |
| 20260506201504 | 14 | 83 | 3.2 | 0.0 | 0.00 | 0.00 | 0.00 | 32 | 1011.2 |
| 20260506200003 | 14 | 13 | 3.2 | 0.0 | 0.00 | 0.00 | 0.00 | 34 | 1011.3 |
| 20260506194502 | 14 | 37 | 1.6 | 0.0 | 0.00 | 0.00 | 0.00 | 34 | 1011.8 |
| 20260506193100 | 14 | 18 | 1.6 | 0.0 | 0.00 | 0.00 | 0.00 | 34 | 1011.8 |
| 20260506191557 | 13 | 34 | 1.6 | 0.0 | 0.00 | 0.00 | 0.00 | 35 | 1011.8 |
| 20260506190056 | 13 | 59 | 0.0 | 0.0 | 0.00 | 0.00 | 0.00 | 37 | 1011.8 |